Theta_e
307 308 308 307 306 306 306 306 306 306 306 306 305 306 306 306 308 310 310 313 307 303 306 311 311 308 311 314 310 316 316 316 316 310 309 311 310 309 310 313 313 312 310 307 309 304 301 317 315 310 326 326 326 324
307 307 307 307 307 306 306 306 305 306 306 306 305 305 305 306 307 310 305 317 313 303 306 313 314 316 316 316 314 316 316 321 323 318 315 318 312 315 312 305 315 310 315 312 313 310 314 322 328 330 330 325 323 324
307 307 307 307 306 306 306 306 306 306 306 306 306 305 305 306 306 308 307 315 312 304 304 307 307 315 319 319 322 310 314 321 322 324 320 313 314 316 310 310 310 317 324 315 314 315 314 321 327 325 325 324 324 325
305 307 307 307 306 306 306 306 306 306 305 306 306 305 305 306 306 307 308 313 311 305 299 305 316 314 319 319 320 320 318 323 323 320 317 318 311 318 310 312 312 317 319 317 319 323 322 324 324 324 323 324 323 324
305 306 306 306 306 306 306 306 306 306 305 305 306 305 305 306 307 307 309 312 312 306 297 300 308 314 318 319 317 319 321 321 317 316 317 316 322 313 314 316 312 318 316 315 315 325 324 324 325 324 322 321 322 322
305 306 306 306 306 306 306 306 306 306 305 305 306 305 305 306 307 305 301 314 313 313 303 296 309 310 314 317 316 317 317 318 317 318 319 322 331 325 316 313 318 318 323 334 325 327 328 327 324 323 322 322 322 321
305 306 306 306 306 306 307 306 306 306 305 305 306 305 305 306 305 301 301 306 309 314 302 298 299 308 313 315 314 315 322 317 317 318 318 321 321 322 317 312 321 321 326 326 327 327 321 322 320 323 323 322 319 321
305 305 305 305 306 306 306 306 306 306 305 305 305 305 305 307 305 299 307 307 309 307 304 298 299 305 314 308 307 316 314 317 319 318 321 319 324 322 313 325 322 323 324 324 324 328 326 326 323 322 322 320 318 317
305 305 305 305 306 306 306 306 306 306 306 306 305 305 305 301 298 303 310 309 308 304 297 299 297 297 311 309 312 316 318 312 319 315 317 320 317 314 318 323 322 323 323 322 324 325 324 321 320 320 318 317 316 316
305 305 305 305 306 306 306 306 306 306 307 306 303 298 295 300 311 311 308 303 302 302 300 295 302 299 305 308 307 312 315 310 307 312 317 315 313 322 325 324 324 327 325 325 322 321 321 320 319 317 318 318 318 317
305 305 305 305 306 306 306 306 306 306 305 301 297 297 308 311 304 301 296 295 299 296 300 299 300 299 305 304 307 312 310 311 304 309 309 309 311 319 325 323 326 328 327 326 327 326 326 325 320 318 316 318 318 317
305 305 305 305 306 306 306 305 305 304 301 301 302 307 307 300 296 293 293 296 295 293 300 298 300 303 305 314 308 311 308 311 304 314 309 305 315 324 320 323 326 330 328 326 327 325 325 324 322 321 318 318 318 319
305 305 305 305 305 306 305 305 305 304 304 304 299 298 297 296 287 287 286 291 293 299 302 302 300 306 309 310 308 306 304 304 313 309 308 310 319 323 326 327 327 329 329 328 326 326 326 323 322 321 319 321 321 320
304 304 305 305 305 305 305 305 305 304 302 295 292 287 291 289 291 291 292 294 300 303 303 303 302 303 307 305 305 299 308 310 304 304 303 310 320 326 328 328 326 326 327 325 325 325 323 323 321 322 321 322 321 321
304 304 304 304 305 305 305 305 305 305 299 294 294 286 290 295 297 298 298 301 304 305 303 302 305 307 303 303 305 304 302 302 305 305 313 323 326 324 327 327 327 327 327 326 326 325 323 323 322 321 323 324 323 323
303 303 303 304 305 305 305 304 302 302 298 296 295 292 295 294 295 298 299 302 305 303 303 303 299 300 298 301 300 297 301 301 306 318 324 331 333 332 331 330 330 330 329 327 326 326 325 323 322 323 323 323 323 322
302 300 303 304 304 304 304 299 298 294 294 293 293 297 296 296 295 300 303 302 305 300 296 299 292 296 303 298 299 304 303 310 318 322 326 337 336 335 334 332 330 329 329 329 328 327 325 325 324 322 321 323 324 324
299 303 305 304 303 301 299 297 295 295 290 294 293 296 297 299 297 301 303 303 301 299 298 295 297 298 297 295 299 307 311 313 322 325 331 336 339 336 333 332 330 330 329 329 327 327 326 324 322 322 325 325 324 324
302 305 304 303 300 295 292 293 297 291 292 295 296 298 299 299 301 303 303 302 302 302 300 297 296 299 301 306 305 308 310 310 318 324 328 335 338 335 332 332 331 330 330 329 328 325 325 326 323 323 322 322 319 320
303 303 303 301 302 297 293 294 301 295 292 294 296 295 297 297 300 300 301 301 300 298 297 294 296 305 307 311 318 319 317 319 321 320 322 327 330 334 332 330 329 331 329 330 328 317 324 323 324 324 322 321 320 319
301 301 301 304 300 298 296 296 295 295 296 295 297 296 295 298 297 297 298 302 298 297 296 300 301 307 313 314 318 322 324 326 324 322 323 323 327 329 329 331 331 327 325 324 321 320 316 321 323 323 321 320 321 321
298 301 298 299 296 296 297 300 296 297 295 295 296 296 295 294 295 296 300 297 296 298 301 302 304 308 308 309 312 314 321 328 330 322 314 317 325 325 326 327 326 324 324 323 322 320 320 321 322 322 320 320 317 321
300 299 296 296 292 292 292 301 294 295 291 293 296 293 293 294 296 300 295 296 297 302 304 304 307 312 309 311 311 312 318 326 324 322 324 325 326 327 327 327 326 324 322 323 323 321 321 309 314 319 320 319 320 318
301 295 292 291 292 289 296 293 296 294 293 292 291 290 292 294 297 294 292 295 299 302 303 306 307 310 310 309 309 311 319 325 325 324 326 325 324 325 326 325 325 324 324 324 323 323 321 321 311 318 319 319 319 317
289 289 291 288 294 291 289 290 291 291 289 291 290 291 292 297 292 291 292 295 300 301 304 308 307 305 305 306 308 313 325 324 323 322 325 326 326 325 324 325 325 326 325 324 323 320 320 319 318 318 318 318 317 315
285 291 289 290 290 289 289 287 289 289 290 290 290 293 295 293 291 291 295 299 301 304 306 307 309 308 309 312 312 317 321 324 326 323 324 326 325 324 322 322 322 323 327 325 321 318 317 317 317 317 316 313 298 314
285 289 293 297 294 294 291 292 293 292 290 289 292 292 292 289 291 296 302 306 307 307 310 310 311 311 312 315 318 316 323 326 326 326 327 327 327 328 326 324 322 324 326 323 321 318 316 317 316 316 315 315 315 316
292 293 289 293 292 294 291 291 291 290 292 295 294 290 291 293 299 308 313 316 317 319 318 313 316 315 315 317 318 324 325 325 328 328 326 327 328 329 330 328 327 297 323 323 320 319 318 317 316 315 314 314 315 316
292 295 295 291 292 293 293 292 292 295 298 296 293 293 296 305 309 310 312 311 311 313 317 313 312 316 318 320 322 324 325 324 322 319 319 321 322 324 326 323 322 322 320 317 291 308 318 316 316 315 316 316 316 316
293 296 292 292 290 290 293 297 296 299 299 300 301 301 302 304 308 314 311 308 307 309 317 322 319 316 322 320 320 322 325 325 325 322 321 320 321 322 323 322 321 319 319 319 316 311 293 310 304 316 314 315 315 314
296 295 292 292 292 294 296 299 300 300 300 300 301 299 299 302 305 309 311 311 312 315 319 320 321 322 321 319 320 320 320 324 325 327 328 324 323 323 322 321 320 320 319 318 317 316 314 314 315 315 314 314 312 310
294 292 292 290 292 297 299 296 297 296 297 296 297 300 300 301 300 305 314 315 318 318 312 317 322 321 323 323 325 325 305 324 325 324 323 323 323 323 321 320 320 320 319 317 317 315 316 315 315 315 313 313 313 313
294 295 295 294 293 294 297 296 294 294 296 296 297 298 299 300 297 305 316 320 318 321 322 320 323 324 325 324 324 324 310 326 314 297 296 300 303 309 320 320 319 319 317 316 316 316 316 316 315 315 314 313 313 312
Wind_Speed
21 19 17 16 14 12 11 9 8 8 7 5 4 4 5 6 8 7 2 4 1 4 14 14 16 14 16 10 8 11 6 6 7 11 12 13 5 4 9 7 12 14 11 9 8 8 5 3 8 4 3 0 7 7
21 19 16 14 13 12 11 10 9 8 7 6 5 4 5 6 7 8 6 3 3 3 9 21 18 18 19 15 10 10 13 11 7 6 4 5 3 3 6 2 8 15 13 6 5 3 12 15 9 6 5 5 5 9
21 19 16 14 13 12 11 11 10 9 8 6 6 6 5 6 7 7 6 2 2 3 8 12 13 16 17 15 13 8 6 10 6 8 6 4 6 6 4 2 5 13 11 8 7 9 14 19 5 3 3 6 5 11
21 18 15 14 13 12 11 10 10 9 8 7 7 5 6 7 8 8 7 4 2 2 4 6 9 11 19 18 13 12 13 12 11 9 7 2 4 2 4 2 6 19 7 11 7 13 15 12 7 7 7 7 8 10
19 18 16 15 14 13 11 11 10 9 8 8 6 6 6 7 8 9 7 4 4 3 3 8 18 19 19 17 17 13 10 9 9 10 7 7 6 5 9 6 13 8 4 3 7 12 8 12 11 8 8 8 9 13
19 17 16 15 14 13 12 11 10 10 9 8 7 6 6 7 7 7 4 2 3 1 3 5 7 14 20 14 13 14 10 9 8 8 8 9 4 3 3 6 6 8 16 5 6 12 14 14 10 11 10 10 11 11
18 16 15 15 13 13 11 11 10 10 9 8 6 6 6 6 7 4 3 1 5 2 3 4 6 7 19 15 10 10 10 8 9 9 10 11 4 5 4 5 22 31 12 14 13 13 14 10 11 11 11 11 10 11
17 16 15 14 13 12 11 10 10 11 9 7 6 5 6 8 11 8 8 10 3 3 2 4 5 7 11 5 9 9 9 8 7 7 9 10 3 1 3 12 13 16 16 13 9 10 11 13 12 11 12 10 11 11
16 16 15 15 14 13 12 10 11 11 9 8 5 5 5 6 7 2 15 11 3 2 3 3 4 4 10 8 7 3 5 5 6 10 11 7 8 3 9 11 14 14 9 13 14 15 15 14 12 11 11 11 11 11
16 16 16 15 15 13 12 10 12 13 11 9 6 6 6 6 19 13 6 5 4 4 3 5 5 7 7 7 4 3 3 8 8 11 8 12 8 12 9 7 5 15 13 15 16 15 14 12 11 10 9 8 9 10
17 16 16 16 15 14 13 12 15 14 11 6 6 3 5 5 6 5 4 6 6 5 7 6 11 2 8 9 7 4 4 5 13 8 11 10 12 12 9 11 8 8 13 12 13 12 12 12 12 11 11 10 10 11
17 17 16 16 15 15 14 14 18 12 7 4 4 2 4 5 5 7 6 5 5 6 9 10 12 10 7 2 3 3 7 6 8 11 12 17 10 11 10 13 9 13 16 14 10 13 14 14 12 11 11 11 11 11
18 17 17 16 17 17 15 15 20 15 8 7 5 4 3 5 2 7 9 5 5 5 4 5 8 6 2 3 2 1 7 7 6 6 1 6 9 13 13 12 11 8 12 13 12 14 15 15 14 12 11 10 11 11
18 18 17 17 17 17 16 18 21 16 3 4 4 3 6 7 8 9 10 10 7 1 6 5 6 6 3 3 3 4 7 9 6 8 6 10 17 13 14 14 15 15 15 14 15 15 15 13 13 12 11 11 11 11
18 18 19 19 18 17 17 21 21 8 3 5 5 6 9 10 7 5 12 4 2 4 4 3 5 4 8 4 3 3 5 5 5 6 6 12 11 9 13 15 13 13 13 12 13 14 14 14 12 12 11 10 10 10
18 14 13 19 19 19 23 19 7 2 3 5 7 8 8 10 10 6 6 5 2 2 2 2 4 5 3 4 4 3 6 5 7 2 7 10 9 12 14 13 12 12 12 13 12 13 13 13 12 12 12 10 11 11
21 4 16 22 21 23 22 4 3 5 6 5 6 10 8 9 9 5 5 4 2 1 3 3 3 4 5 7 9 7 5 5 8 3 8 8 9 11 11 12 12 12 13 14 14 13 12 12 13 12 12 11 10 10
4 11 24 25 18 15 3 2 5 8 8 8 6 8 10 5 8 5 5 4 3 1 2 3 4 7 5 11 10 4 7 5 4 8 6 9 10 9 10 11 12 12 13 14 14 13 13 14 12 9 11 11 10 9
10 16 27 27 11 6 4 3 4 5 8 8 10 4 4 10 1 7 4 6 1 2 0 1 7 8 7 2 4 6 1 9 8 4 5 8 9 10 11 11 12 13 13 13 14 10 10 12 9 9 9 9 9 9
20 28 29 23 13 3 5 5 7 5 5 8 10 9 9 7 5 6 6 8 4 1 5 7 8 6 8 9 5 9 4 5 7 5 7 7 8 10 10 10 9 12 11 12 10 11 10 9 9 9 9 9 9 10
23 19 23 16 3 2 3 6 8 6 3 4 6 8 8 7 8 4 6 8 6 4 5 8 10 8 10 14 13 13 2 7 6 6 9 8 8 9 9 9 12 11 10 10 10 11 11 9 9 9 9 8 9 9
8 21 4 0 3 4 6 6 5 6 6 6 5 7 7 9 11 9 10 10 11 9 8 9 6 1 10 15 16 18 19 10 4 4 8 8 9 10 10 10 11 11 10 10 10 10 9 10 9 9 10 9 8 9
13 4 3 3 4 4 6 6 7 5 6 5 8 6 6 9 10 9 12 10 10 9 8 8 9 6 3 11 16 21 20 10 6 5 5 6 7 9 10 10 10 10 10 9 9 9 9 9 7 9 8 9 8 8
8 6 6 7 7 6 4 5 4 5 5 7 5 12 11 8 9 11 11 11 9 10 10 10 7 4 4 9 12 13 13 7 5 5 5 7 8 8 9 9 10 9 9 9 8 9 9 8 8 8 9 9 11 7
5 5 4 4 6 8 7 7 9 7 9 11 11 10 7 7 12 14 14 11 10 8 7 7 9 8 7 9 13 16 12 6 5 6 4 7 8 9 9 9 9 9 9 9 9 11 9 8 9 10 10 10 11 11
3 8 8 11 8 8 8 7 10 10 9 12 9 10 10 11 15 11 10 10 9 8 9 8 8 11 13 12 15 3 5 5 5 5 5 7 9 10 11 10 10 8 8 9 10 12 12 11 11 12 10 10 8 11
5 6 8 8 10 8 6 7 6 6 8 6 6 9 8 6 8 9 7 4 6 8 8 8 6 8 9 9 3 5 10 5 2 2 5 3 8 9 10 10 11 9 10 11 11 12 12 12 12 11 11 10 9 9
6 5 11 12 8 7 9 7 8 8 8 7 6 10 8 5 1 4 6 9 9 9 9 8 8 8 8 7 6 14 7 2 4 1 3 4 6 7 11 10 9 9 8 9 11 11 11 12 11 12 12 11 9 9
5 6 5 7 6 4 5 6 8 6 7 8 10 13 11 4 5 7 5 7 8 8 8 9 9 8 8 8 6 8 6 6 9 12 13 9 10 8 10 11 11 9 9 8 7 9 12 11 12 12 12 10 9 8
9 8 9 8 10 9 8 7 8 9 7 8 9 9 9 8 4 4 7 9 9 9 9 9 6 8 6 7 7 7 5 5 6 8 9 10 10 10 11 11 10 11 10 10 10 9 9 11 10 10 10 10 9 10
9 8 8 8 11 10 9 7 8 8 8 8 9 9 11 10 9 8 7 8 8 7 8 8 5 7 9 9 8 9 8 7 9 8 7 11 10 10 10 11 10 10 10 12 11 11 12 12 11 12 12 11 11 8
11 14 10 13 9 8 7 7 6 8 9 9 11 10 10 10 10 3 3 3 6 8 9 7 7 7 7 6 7 7 7 8 7 11 15 12 10 11 12 12 12 11 12 13 12 13 15 14 12 13 13 12 12 10
11 8 7 6 6 7 7 7 4 7 9 12 13 12 10 9 5 4 3 5 6 7 6 7 8 9 10 10 9 7 7 8 11 8 10 11 13 12 12 12 11 12 16 13 14 14 15 15 12 15 16 13 13 14
Wind_Direction
179 182 185 189 195 197 202 211 219 220 227 236 255 287 314 327 336 310 316 160 232 297 291 284 310 321 331 346 348 325 275 180 251 231 252 255 296 157 260 314 183 194 199 199 212 200 231 128 143 190 86 6 87 100
178 178 180 187 191 197 202 209 214 220 225 234 251 272 294 317 328 329 276 150 163 235 294 305 287 279 287 308 319 311 306 319 3 269 232 312 270 155 161 185 348 264 201 120 96 138 297 309 68 87 77 82 95 124
174 173 178 184 189 196 199 206 210 215 222 231 241 260 287 307 313 315 302 291 215 275 281 262 269 273 257 255 265 271 335 3 344 344 309 55 334 331 3 26 341 259 141 102 138 198 178 244 125 113 121 114 117 122
174 174 181 185 189 194 197 200 206 211 218 228 237 257 275 291 302 306 281 297 240 265 281 284 1 286 284 267 251 243 268 290 291 279 284 224 175 155 5 325 333 288 176 152 125 180 179 146 157 136 110 124 117 124
179 174 181 189 192 195 198 202 205 209 218 227 236 250 266 284 301 286 268 267 252 245 316 301 308 270 278 257 247 252 258 271 288 290 245 251 263 113 202 189 239 333 357 36 57 121 93 129 122 135 141 128 128 123
179 177 183 188 189 192 196 201 205 209 214 222 231 244 262 281 307 273 272 81 256 228 273 290 328 275 274 243 223 237 240 242 259 283 280 268 126 301 257 159 153 64 298 339 87 74 100 101 118 125 124 133 131 140
177 179 183 188 186 187 190 198 204 204 208 215 227 244 262 281 273 266 332 255 319 253 258 276 282 246 240 223 221 236 226 247 255 264 250 274 282 177 271 296 172 175 135 95 93 100 104 124 126 121 127 119 125 124
179 181 184 189 189 186 188 198 200 195 198 201 216 241 264 280 274 255 230 176 201 258 231 264 256 288 236 197 226 214 229 211 238 245 267 235 224 136 220 124 125 117 126 129 106 121 118 118 120 126 121 140 128 134
182 183 186 188 189 186 186 192 192 184 181 185 200 234 247 226 230 224 119 134 178 268 277 265 205 272 225 207 242 224 215 233 235 220 245 266 219 219 209 147 146 145 146 148 129 125 128 128 131 133 142 141 144 139
185 187 188 189 190 187 185 187 186 173 166 166 206 207 210 185 111 128 177 192 205 188 220 253 287 228 333 198 228 239 183 237 211 222 215 240 232 222 227 248 207 176 149 147 138 138 140 137 143 154 140 145 137 139
188 189 190 191 188 187 185 187 176 160 156 207 208 240 92 164 184 216 231 210 176 211 202 229 238 288 276 257 232 302 252 216 232 202 214 210 229 209 219 210 221 209 155 169 133 134 127 145 154 151 147 145 145 151
190 190 190 191 190 189 188 185 170 172 192 211 322 277 182 198 208 217 198 220 209 238 181 222 214 189 234 326 83 302 272 235 226 191 192 227 197 195 228 195 197 164 155 151 142 138 149 150 150 149 151 149 152 151
192 191 191 191 191 189 184 180 171 211 241 238 226 218 192 229 251 221 219 199 202 214 243 218 212 172 239 189 179 305 237 259 236 164 162 243 217 196 179 151 143 157 139 142 147 139 136 141 149 152 150 148 151 150
191 190 190 190 184 180 180 172 175 212 272 239 217 229 220 210 210 221 233 232 194 331 7 358 290 165 227 197 80 259 269 267 196 186 147 252 245 160 141 146 146 152 146 147 141 135 140 146 146 145 147 149 147 143
188 189 186 183 178 177 174 167 185 194 255 240 211 226 212 248 271 289 222 136 83 82 22 334 269 245 189 232 152 309 285 248 237 181 202 139 151 140 165 147 150 142 136 138 131 134 143 142 141 142 139 141 144 142
182 172 189 175 177 171 163 160 177 217 233 244 241 244 242 215 247 198 209 118 53 67 81 143 296 214 230 151 172 182 275 231 233 23 96 129 132 139 135 139 137 142 139 132 131 135 140 143 144 137 136 146 144 153
168 171 169 163 164 158 147 105 165 213 229 229 234 252 268 282 238 48 47 63 329 159 154 242 242 275 179 212 177 176 253 315 341 32 113 113 123 124 129 128 136 136 129 129 130 137 137 136 133 139 148 146 150 155
152 157 153 155 148 123 72 143 206 210 216 235 237 255 255 246 300 94 103 111 215 159 63 337 315 257 211 205 172 215 284 316 299 247 92 98 108 115 119 124 129 127 127 128 134 135 140 138 143 147 147 146 154 155
168 153 153 141 121 104 130 173 260 233 218 227 224 264 313 290 226 120 132 114 136 60 2 66 274 249 255 336 99 217 249 297 282 95 104 118 129 130 124 129 131 130 132 139 140 144 140 150 151 147 155 159 164 165
157 146 139 139 147 133 161 184 204 262 231 203 236 228 244 246 209 185 177 141 144 195 220 198 241 337 345 341 343 328 208 235 251 153 128 132 130 124 135 137 135 131 134 135 147 141 145 158 147 157 157 177 161 167
126 139 138 149 125 2 252 189 185 208 217 247 243 250 247 254 270 175 221 162 182 206 242 239 264 280 333 327 321 323 299 240 271 336 136 136 146 136 147 136 133 149 146 160 154 148 165 160 152 164 158 178 168 159
117 128 102 17 135 234 239 249 197 178 203 238 270 237 240 239 236 227 226 212 221 232 224 252 264 355 307 309 317 315 310 310 299 90 78 122 139 147 158 147 164 150 162 157 159 160 168 153 157 157 167 173 163 156
100 123 110 124 171 217 267 271 207 199 190 213 209 212 238 241 250 250 240 238 246 241 244 257 258 202 260 306 309 302 291 279 271 136 149 139 143 159 143 167 156 159 151 154 147 167 149 135 137 157 155 147 132 116
144 139 173 166 185 206 200 189 204 232 227 217 219 232 244 228 213 244 251 244 228 241 230 212 228 138 131 257 271 273 270 246 262 136 208 138 150 141 163 162 152 149 153 140 161 120 125 140 158 154 144 156 130 145
122 188 191 200 205 171 195 191 195 210 220 236 227 246 244 237 222 222 232 236 246 241 227 222 194 160 224 229 257 268 237 231 212 161 160 152 141 159 159 156 152 140 145 138 128 133 154 149 163 138 162 145 140 156
141 206 197 186 180 193 204 196 194 210 215 234 224 230 245 245 262 243 235 226 222 221 225 235 207 198 216 202 228 203 178 232 266 158 186 165 158 166 156 148 135 142 136 135 144 160 148 160 147 153 142 125 139 162
209 190 194 186 192 203 224 225 231 222 201 221 221 208 235 240 239 224 226 241 240 229 241 220 225 227 236 231 167 34 287 180 244 341 170 203 171 164 151 145 145 141 139 147 159 149 159 149 144 150 141 146 163 160
218 200 191 195 198 188 210 233 243 232 227 231 209 218 225 237 4 50 31 9 348 328 303 229 230 230 230 231 209 150 231 153 144 192 197 198 190 123 113 129 120 114 130 146 145 152 141 144 147 138 144 150 158 140
204 210 184 202 211 206 198 217 219 219 230 230 224 231 254 323 325 318 323 327 331 317 294 252 200 219 225 225 189 132 168 180 175 176 179 154 116 115 112 121 124 125 123 104 68 114 142 145 139 142 145 140 132 144
204 196 198 200 207 216 224 223 233 244 227 238 268 288 292 289 310 7 320 310 306 297 275 287 203 199 199 154 155 155 173 198 209 190 180 142 129 124 133 132 133 136 136 125 115 112 104 112 115 130 133 132 144 128
219 203 201 211 220 229 237 232 254 265 260 272 283 281 280 289 303 311 279 270 275 255 257 247 228 227 161 174 170 177 178 195 206 207 122 116 125 135 138 132 134 135 136 135 139 142 138 146 143 140 146 133 114 122
201 212 215 224 227 227 221 250 260 260 265 257 253 259 294 295 285 292 248 265 266 233 237 214 184 201 190 175 173 197 185 180 157 132 127 123 153 137 140 142 139 137 140 144 148 146 153 145 150 132 122 146 135 127
198 204 220 241 224 238 241 242 275 278 253 246 244 244 234 245 244 262 273 230 267 259 211 188 197 179 175 197 191 170 184 141 122 112 118 133 135 148 140 135 135 145 147 146 147 152 148 151 138 130 122 123 121 110